Date,TemperatureHighF,TemperatureAvgF,TemperatureLowF,DewpointHighF,DewpointAvgF,DewpointLowF,HumidityHigh,HumidityAvg,HumidityLow,PressureMaxIn,PressureMinIn,WindSpeedMaxMPH,WindSpeedAvgMPH,GustSpeedMaxMPH,PrecipitationSumIn
2013-1-2,77.6,71.0,67.0,65.7,62.2,59.5,81,74,64,29.99,29.85,3,2,12,0.00
2013-1-3,79.2,69.5,66.5,64.0,59.6,56.9,79,71,58,30.01,29.15,2,2,5,0.00
2013-1-4,82.7,79.3,72.9,65.7,64.6,63.5,74,61,55,29.93,29.83,7,4,14,0.00
2013-1-5,88.6,81.2,73.7,69.4,67.7,65.8,77,64,52,29.94,29.86,7,4,14,0.00
2013-1-6,84.9,83.4,81.9,68.1,66.8,65.0,63,58,53,30.05,30.01,6,4,13,0.00
2013-1-7,85.4,79.0,71.9,70.1,67.4,63.5,75,68,57,30.10,26.40,5,3,12,0.00
2013-1-8,105.6,96.0,71.4,63.2,58.0,52.6,75,30,19,29.84,16.46,11,8,16,0.00
2013-1-9,89.6,77.3,68.9,72.3,58.2,48.9,79,56,25,29.66,28.27,9,4,21,0.00
2013-1-10,69.1,69.0,69.0,58.5,58.4,58.4,69,69,69,29.66,29.66,1,0,1,0.00
2013-1-11,91.1,87.9,83.6,70.8,69.5,67.5,62,55,50,29.71,29.58,8,5,15,0.00
2013-1-14,73.5,69.6,63.9,60.9,56.8,54.1,90,64,53,30.06,29.90,7,4,16,0.16
2013-1-15,80.4,73.1,63.7,63.1,60.4,56.0,88,66,47,30.05,29.90,6,3,14,0.03
2013-1-16,85.8,72.9,61.1,67.4,61.8,58.3,93,71,43,29.91,29.76,7,2,10,0.00
2013-1-17,86.5,82.0,75.8,71.7,70.0,68.2,80,67,60,29.80,29.63,6,3,18,0.00
2013-1-18,113.9,90.2,71.7,74.2,65.9,57.2,93,55,17,29.65,24.53,11,4,16,0.20
2013-1-20,69.3,68.4,67.3,68.4,67.1,66.1,97,96,94,29.95,29.89,1,0,3,0.83
2013-1-21,82.1,77.1,71.7,70.3,67.7,65.7,88,73,61,29.91,29.81,5,3,12,0.00
2013-1-22,91.2,75.9,65.2,72.6,68.0,63.4,95,78,48,29.80,24.16,6,2,14,0.06
2013-1-23,72.8,70.8,69.2,68.9,66.7,65.2,93,87,81,29.96,29.77,6,4,11,0.00
2013-1-24,81.2,79.8,77.7,71.9,70.7,68.8,78,74,70,29.94,29.85,3,2,11,0.02
2013-1-25,85.7,81.9,76.7,73.9,72.2,71.2,84,73,65,29.83,29.75,6,3,11,0.00
2013-1-26,81.5,76.9,75.0,72.0,70.9,70.4,86,82,73,29.76,29.72,8,4,16,0.21
2013-1-27,75.0,74.9,74.9,70.5,70.4,70.4,86,86,86,29.75,29.74,3,2,3,0.00
2013-1-28,70.9,70.0,69.0,69.7,69.0,67.8,97,96,95,29.73,29.60,8,4,15,2.69
2013-1-29,83.6,75.7,68.4,73.1,68.8,65.0,94,80,68,29.66,29.51,6,3,25,0.19
2013-1-30,79.6,74.5,70.1,69.3,67.1,65.0,87,78,68,29.91,29.86,3,2,6,0.01
2013-1-31,87.5,80.6,73.0,73.0,70.9,68.6,87,73,58,29.85,29.63,7,4,13,0.00
2013-2-1,89.2,70.0,63.4,71.1,65.8,61.7,97,88,52,29.68,29.58,10,4,10,0.93
2013-2-2,67.5,61.2,58.6,63.2,58.4,53.5,96,91,75,29.86,29.65,9,6,22,0.86
2013-2-3,73.8,63.5,59.4,59.9,54.3,52.5,80,72,55,29.89,29.80,9,5,21,0.00
2013-2-4,78.2,72.4,63.9,65.4,62.3,57.5,90,71,52,30.14,30.04,5,3,21,0.01
2013-2-5,80.4,73.7,67.4,66.4,63.8,62.3,85,72,58,30.16,30.09,4,2,9,0.00
2013-2-6,80.3,71.8,63.0,65.1,61.3,57.4,94,71,50,30.11,29.98,5,2,10,0.00
2013-2-7,82.4,80.8,78.9,64.9,63.8,62.8,59,56,54,29.95,29.90,6,5,14,0.00
2013-2-8,86.8,80.3,71.9,68.3,65.8,63.0,78,62,47,29.95,29.90,6,4,15,0.00
2013-2-9,90.9,81.2,68.6,70.8,67.1,61.8,86,64,41,29.96,29.80,6,3,13,0.00
2013-2-10,88.8,79.5,71.5,72.1,69.3,66.1,86,72,53,29.96,29.85,8,3,15,0.00
2013-2-11,69.5,67.9,66.9,66.9,65.8,65.0,96,93,87,30.01,29.95,6,3,20,0.27
2013-2-12,79.6,73.3,69.2,68.9,65.2,61.5,97,76,66,30.07,30.02,3,1,7,0.46
2013-2-13,80.2,75.0,69.6,62.6,60.2,58.4,77,60,51,30.16,30.08,5,2,12,0.05
2013-2-14,80.5,73.0,62.6,63.4,61.0,58.9,91,68,51,30.11,30.08,3,1,5,0.00
2013-2-15,77.7,71.7,65.9,67.0,64.6,61.9,93,79,63,30.10,30.03,4,1,8,0.03
2013-2-16,82.0,74.0,64.7,65.4,63.4,61.1,91,70,55,30.09,30.03,3,1,9,0.02
2013-2-17,82.1,70.6,62.3,67.4,62.2,59.1,96,76,54,30.09,30.02,3,1,9,0.08
2013-2-18,81.4,71.8,63.0,68.1,63.7,60.6,93,77,54,30.04,29.92,5,1,10,0.01
2013-2-19,84.2,77.2,70.1,70.4,68.1,65.9,90,74,60,29.92,29.83,4,2,10,0.00
2013-2-20,83.0,74.3,66.7,70.9,67.7,64.5,96,81,63,29.94,29.85,3,1,9,0.00
2013-2-21,84.0,74.5,68.7,70.9,67.5,65.3,92,80,60,29.97,29.93,4,1,8,0.28
2013-2-22,78.9,71.3,65.3,69.4,65.7,62.3,92,83,69,29.96,29.88,4,2,8,0.34
2013-2-23,72.7,72.7,72.7,71.2,71.2,71.2,95,95,95,29.66,29.66,3,3,3,0.00
2013-2-24,91.0,80.8,72.9,75.5,73.0,70.6,95,78,59,29.88,29.78,8,5,17,0.00
2013-2-25,87.1,79.9,73.9,74.1,71.5,69.1,88,76,63,29.98,29.88,7,4,11,0.00
2013-2-26,82.0,76.3,71.9,70.9,68.5,65.2,86,77,63,29.99,29.90,6,4,15,0.00
2013-2-27,88.0,80.2,70.8,69.9,66.4,62.7,82,64,49,29.94,29.77,7,4,14,0.00
2013-2-28,89.4,80.1,67.1,69.8,66.7,63.9,91,66,50,29.74,29.64,6,4,12,0.03
2013-3-1,65.0,63.7,62.0,64.1,62.7,60.8,97,97,96,29.95,29.84,5,4,13,3.94
2013-3-2,66.2,64.6,61.7,64.9,63.0,60.5,97,95,91,30.05,29.94,5,2,16,1.19
2013-3-3,80.1,71.5,64.8,66.8,64.6,62.2,95,80,62,30.06,29.99,3,2,7,0.02
2013-3-4,82.3,75.0,67.1,66.5,63.8,61.5,87,69,53,30.10,30.03,5,2,10,0.00
2013-3-5,81.2,75.4,69.3,66.7,64.0,61.8,80,68,55,30.09,30.02,6,2,15,0.00
2013-3-6,82.3,76.1,68.9,67.4,64.6,61.8,84,68,53,30.06,29.97,6,3,15,0.00
2013-3-7,79.8,73.4,69.4,65.1,63.6,62.6,80,72,57,30.05,30.04,5,2,11,0.00
2013-3-8,82.1,76.2,67.5,67.4,64.6,62.8,86,68,54,30.10,30.03,5,2,13,0.00
2013-3-9,80.5,77.3,75.9,67.1,66.1,64.8,72,68,63,30.07,30.03,4,3,7,0.00
2013-3-10,81.5,79.8,77.5,65.3,64.6,63.8,63,60,57,29.99,29.98,3,3,4,0.00
2013-3-11,83.6,80.8,78.7,68.6,67.0,65.2,68,63,59,30.04,30.01,4,2,8,0.00
2013-3-12,82.1,76.6,68.2,66.6,65.0,63.9,87,68,57,30.04,29.94,4,2,8,0.00
2013-3-13,82.5,80.5,77.5,66.9,64.6,60.7,66,59,49,29.89,29.77,5,3,9,0.00
2013-3-15,72.5,69.7,67.8,69.1,67.5,66.3,96,93,89,29.95,29.90,5,2,8,0.09
2013-3-16,81.7,74.9,68.1,68.3,67.0,65.5,96,77,62,29.93,29.82,4,2,7,0.01
2013-3-18,74.5,70.5,64.7,58.5,56.9,54.9,73,62,55,30.08,30.03,5,2,8,0.00
2013-3-19,77.0,71.4,64.4,61.5,59.4,56.8,83,66,51,30.20,30.11,3,1,7,0.00
2013-3-20,77.1,70.6,59.1,64.5,62.2,57.2,95,75,64,30.20,30.07,5,2,16,0.00
2013-3-21,85.6,80.7,73.1,65.1,61.3,56.5,75,53,41,29.93,29.89,4,3,7,0.00
2013-3-22,90.7,82.1,69.4,68.3,65.6,62.6,79,58,45,29.86,20.02,13,6,19,0.00
2013-3-23,90.9,80.3,72.9,66.2,63.5,61.0,74,58,44,29.87,29.84,7,4,10,0.01
2013-3-24,74.3,70.6,68.2,68.8,67.9,66.7,96,91,82,29.91,29.86,2,0,4,0.00
2013-3-25,82.6,76.2,69.9,70.2,68.5,64.2,94,78,65,30.00,29.86,3,1,7,0.00
2013-3-26,83.4,76.2,68.8,73.1,68.9,66.8,94,79,69,29.99,29.91,6,3,10,0.01
2013-3-27,90.4,79.8,68.9,70.6,68.3,65.9,91,69,49,29.98,29.90,6,3,12,0.00
2013-3-28,92.6,82.3,70.4,70.7,66.7,63.4,89,62,39,29.95,29.80,7,3,13,0.01
2013-3-29,71.5,70.0,69.1,68.8,65.8,55.9,95,88,58,29.99,29.83,5,2,7,0.00
2013-3-30,67.5,63.5,61.2,61.0,57.7,56.0,83,81,79,30.00,29.80,3,0,3,0.00
2013-3-31,76.7,69.5,63.5,61.3,58.1,53.3,88,68,46,29.91,29.72,6,2,13,0.00
2013-4-1,78.5,69.5,61.7,64.3,61.9,58.9,93,78,61,29.98,29.89,4,1,12,0.00
2013-4-2,78.7,68.1,59.4,62.5,59.1,52.9,95,75,45,29.94,29.84,4,1,9,0.00
2013-4-3,66.5,64.0,61.8,63.8,61.0,59.1,96,90,79,30.13,29.94,6,2,18,0.02
2013-4-4,69.7,64.0,60.4,63.8,61.4,58.5,97,91,74,30.26,30.16,3,1,11,0.00
2013-4-5,76.8,72.8,61.0,59.7,57.6,55.7,89,60,50,30.26,30.19,3,1,12,0.00
2013-4-6,74.4,69.6,64.3,63.7,60.9,59.0,84,74,59,30.18,30.08,3,1,11,0.00
2013-4-7,74.8,72.5,70.7,63.2,60.7,58.6,74,66,61,30.04,30.00,3,1,5,0.00
2013-4-8,76.9,71.0,63.3,62.5,60.3,58.3,86,70,57,30.11,28.73,3,1,4,0.00
2013-4-9,73.7,64.9,59.8,63.9,60.8,57.8,95,87,70,30.14,30.05,3,1,5,0.00
2013-4-10,76.3,69.9,57.0,64.0,60.3,56.2,98,73,55,30.10,29.99,3,1,6,0.00
2013-4-11,80.1,72.3,60.5,63.1,60.1,56.5,90,67,45,30.06,29.96,4,2,8,0.00
2013-4-12,74.7,70.0,68.5,63.5,60.6,59.4,74,72,70,30.06,29.99,2,1,3,0.00
2013-4-13,77.5,73.3,67.8,64.3,62.3,60.2,80,69,57,29.91,29.77,5,3,11,0.00
2013-4-14,77.0,65.7,58.9,63.8,60.5,57.2,95,84,62,29.73,29.66,2,1,4,0.00
2013-4-15,85.8,76.8,69.7,66.4,62.0,57.3,85,62,42,29.61,29.51,5,2,9,0.00
2013-4-16,70.5,66.7,62.7,63.3,61.5,60.6,94,83,75,29.74,29.67,4,2,11,0.13
2013-4-17,74.6,69.0,62.6,63.3,61.0,59.3,90,76,66,29.78,29.69,3,1,6,0.00
2013-4-18,75.7,69.9,63.4,63.4,60.7,58.6,87,73,58,29.72,29.64,3,1,5,0.00
2013-4-19,67.5,63.6,58.8,48.2,45.9,41.9,65,53,47,29.72,29.67,8,5,14,0.00
2013-4-22,76.8,69.6,58.1,57.3,54.4,51.8,92,60,45,29.64,29.51,7,2,10,0.02
2013-4-23,75.6,67.6,54.9,55.8,51.5,46.6,82,58,41,29.76,29.63,6,2,11,0.00
2013-4-24,74.6,67.3,58.3,53.9,51.6,47.7,82,59,40,29.86,29.75,5,1,8,0.00
2013-4-26,77.4,70.7,61.9,57.0,52.5,48.9,76,54,39,29.98,29.87,5,2,8,0.00
2013-4-29,81.7,72.2,64.7,65.9,63.9,58.9,94,77,50,32.49,29.23,2,0,4,0.00
2013-4-30,74.0,68.8,64.0,66.8,64.8,62.9,97,87,77,32.49,29.92,4,1,7,0.00
2013-5-1,83.5,75.8,67.0,63.6,60.4,55.4,87,62,40,29.79,29.67,6,3,10,0.01
2013-5-2,67.1,62.5,57.4,54.0,52.0,50.1,84,69,56,30.08,29.98,7,4,12,0.01
2013-5-3,72.9,69.1,62.6,53.7,52.0,49.3,72,55,45,29.95,29.88,4,2,10,0.00
2013-5-4,76.1,66.7,62.3,59.1,52.6,48.4,75,62,38,29.97,29.78,4,3,9,0.00
2013-5-5,58.4,58.4,58.4,48.7,48.7,48.7,70,70,70,29.96,29.96,1,1,1,0.00
2013-5-6,67.3,62.0,57.1,56.4,55.2,53.2,92,79,64,30.06,29.99,5,2,10,0.05
2013-5-7,60.4,59.0,55.1,57.8,56.5,53.4,94,92,90,30.12,30.05,1,0,1,0.02
2013-5-8,71.4,66.7,61.4,59.9,57.6,56.6,85,73,62,30.16,30.10,2,1,8,0.00
2013-5-9,74.3,63.0,54.1,59.2,56.0,52.4,96,79,52,30.18,30.09,3,0,5,0.01
2013-5-10,72.9,67.0,59.6,60.6,57.3,54.8,91,72,55,30.18,30.10,2,1,7,0.01
2013-5-11,69.0,64.1,61.0,63.4,60.5,59.0,93,88,84,30.16,30.13,2,1,4,0.00
2013-5-13,72.5,66.4,60.1,59.2,57.1,54.1,88,73,55,29.85,29.69,3,1,8,0.00
2013-5-14,66.7,60.6,55.6,58.9,56.7,53.5,95,87,74,29.68,29.60,4,1,6,0.07
2013-5-15,55.0,53.8,52.9,46.8,45.0,43.1,76,72,69,29.67,29.66,4,2,6,0.00
2013-5-20,66.3,60.8,54.4,47.9,44.6,41.1,73,56,41,29.84,29.83,6,2,8,0.00
2013-5-21,71.4,60.5,50.7,49.0,44.7,42.3,75,57,40,29.84,29.71,8,3,12,0.00
2013-5-22,61.5,59.0,54.6,54.4,52.6,47.9,94,80,69,29.72,29.57,2,1,5,0.17
2013-5-23,66.4,59.3,56.2,56.7,54.9,53.0,94,85,71,29.62,29.62,4,2,6,1.50
2013-5-24,68.1,63.7,58.8,54.6,52.2,48.6,85,66,59,29.84,29.73,5,3,8,0.25
2013-5-25,58.3,56.9,55.9,53.8,53.1,52.2,92,87,82,29.96,29.86,5,3,8,0.06
2013-5-26,68.1,59.6,49.2,49.3,47.0,44.0,84,65,43,30.04,29.97,3,2,6,0.00
2013-5-27,62.0,57.1,50.9,58.1,54.6,47.8,95,91,83,29.96,29.96,3,1,5,0.20
2013-5-28,67.1,62.6,58.7,59.1,56.7,55.1,88,81,73,29.96,29.96,3,1,6,0.04
2013-5-29,71.1,61.6,55.3,57.7,55.0,52.8,93,80,61,29.96,29.96,4,2,7,0.00
2013-5-30,73.4,65.4,54.8,57.2,54.4,51.5,91,69,47,30.12,30.12,6,2,8,0.00
2013-5-31,74.2,67.8,59.4,59.2,57.5,55.5,91,71,55,30.04,29.98,4,1,7,0.01
2013-6-1,66.9,63.6,61.0,55.6,54.8,53.9,78,73,67,29.88,29.83,6,4,13,0.00
2013-6-3,63.4,59.3,50.5,49.0,46.9,44.6,86,64,57,29.91,29.83,6,3,9,0.01
2013-6-4,66.4,59.0,49.4,55.2,51.0,43.7,91,75,62,30.03,29.94,4,1,6,0.00
2013-6-5,67.3,61.8,55.4,55.7,54.2,52.2,89,77,65,30.04,29.93,4,1,6,0.00
2013-6-6,65.7,64.3,62.9,54.2,52.8,51.4,73,66,63,29.97,29.89,5,3,8,0.00
2013-6-7,63.8,63.0,62.4,58.2,57.8,57.5,84,83,82,29.89,29.89,4,3,10,0.00
2013-6-10,66.5,60.6,57.0,56.9,55.6,54.7,92,84,69,29.91,29.85,4,2,5,0.02
2013-6-11,68.9,64.0,56.2,55.2,53.1,50.9,89,69,54,29.87,29.77,4,1,7,0.01
2013-6-12,68.6,56.9,50.9,58.8,54.5,48.9,96,92,71,29.77,29.53,6,1,12,0.28
2013-6-13,67.2,60.8,54.2,54.9,52.1,50.3,94,74,59,29.52,29.42,10,5,14,0.00
2013-6-14,56.3,55.5,55.0,47.0,46.6,46.2,73,72,71,29.47,29.45,5,4,7,0.00
2013-6-15,64.4,60.1,54.5,48.8,46.7,44.6,81,62,53,29.61,29.52,7,4,10,0.01
2013-6-16,61.4,57.4,51.7,48.2,45.6,43.1,79,65,55,29.70,29.59,6,2,11,0.00
2013-6-17,60.9,52.1,45.8,48.2,44.2,41.2,85,75,63,29.57,29.50,6,3,10,0.00
2013-6-18,62.7,57.7,47.6,49.4,45.3,42.1,81,64,50,29.72,29.61,6,3,12,0.00
2013-6-19,59.5,54.8,49.9,51.5,49.2,47.3,91,82,69,29.91,29.84,8,5,15,0.27
2013-6-20,59.5,57.1,55.4,51.0,49.1,47.9,85,75,71,29.93,29.88,5,3,11,0.01
2013-6-21,59.5,58.5,56.7,51.7,51.2,50.8,83,76,74,29.83,29.82,3,2,6,0.00
2013-6-22,53.4,53.4,53.4,49.9,49.9,49.9,88,88,88,29.96,29.96,2,2,3,0.00
2013-8-24,70.0,59.7,52.7,52.7,48.0,44.2,86,67,45,29.66,29.43,7,3,0,0.00
2013-8-25,75.7,61.8,48.4,53.8,48.0,41.6,92,65,30,29.70,29.57,6,2,0,0.00
2013-8-26,71.3,59.4,52.5,53.5,48.0,43.3,91,67,39,29.69,29.56,3,1,0,0.00
2013-8-27,71.1,59.5,51.4,52.6,49.9,45.7,91,73,42,29.61,29.49,2,1,0,0.00
2013-8-28,71.6,60.1,50.7,54.8,51.2,47.3,94,75,45,29.56,29.47,4,1,0,0.00
2013-8-29,71.3,63.2,51.4,59.0,55.5,50.3,96,77,54,29.57,29.36,6,2,6,0.01
2013-8-30,82.7,68.4,58.9,57.1,53.9,44.9,85,63,34,29.35,29.18,10,4,14,0.00
2013-8-31,71.9,62.1,56.5,51.1,46.1,42.6,70,56,45,29.45,29.31,2,0,4,0.00
2013-9-2,74.1,65.3,55.1,59.0,55.2,51.5,96,71,47,29.71,29.65,4,1,6,0.01
2013-9-3,72.7,66.1,55.2,59.4,56.7,52.6,94,73,56,29.77,29.69,4,1,9,0.00
2013-9-4,73.7,65.7,52.8,58.4,55.0,50.5,93,69,51,29.75,29.59,5,3,10,0.01
2013-9-5,83.5,76.3,66.5,56.4,51.7,47.7,67,44,31,29.52,29.46,6,2,9,0.00
2013-9-6,77.1,71.3,63.9,63.3,59.7,49.3,91,69,44,29.54,29.43,3,1,5,0.00
2013-9-7,87.8,82.1,63.7,59.9,48.6,42.1,87,34,23,29.42,29.30,7,4,9,0.00
2013-9-8,70.4,67.4,64.5,62.2,61.0,59.7,88,80,71,29.47,29.40,5,2,12,0.00
2013-9-9,79.3,72.4,65.4,64.1,62.6,59.8,89,72,53,29.37,29.09,4,2,6,0.00
2013-9-10,86.4,79.7,65.9,60.9,48.5,43.7,83,36,25,29.04,28.78,14,7,21,0.00
2013-9-11,79.0,71.2,63.9,55.9,43.3,33.1,74,42,20,29.10,28.95,5,1,10,0.00
2013-9-12,74.9,66.7,59.5,52.8,46.1,40.2,76,49,30,29.15,29.00,7,2,10,0.00
2013-9-13,55.6,53.1,51.5,48.7,46.7,45.2,81,79,76,29.27,29.20,6,3,14,0.00
2013-9-14,77.1,69.6,60.8,59.8,57.5,53.9,89,66,48,29.08,28.91,8,4,13,0.23
2013-9-15,69.6,61.2,55.2,58.2,53.8,51.3,89,77,61,29.23,29.10,3,1,7,0.00
2013-9-16,65.4,61.6,60.6,60.1,58.8,56.8,95,91,74,29.02,28.83,6,4,12,0.25
2013-9-17,72.3,66.4,60.1,60.2,55.3,51.6,94,68,52,28.74,28.66,10,5,13,0.11
2013-9-18,77.5,71.9,59.6,55.2,47.8,43.0,81,44,32,28.76,28.70,12,7,18,0.00
2013-9-19,76.1,66.6,56.9,46.7,41.9,38.0,67,42,27,28.90,28.73,10,4,18,0.00
2013-9-20,73.9,66.6,58.2,43.3,38.7,30.7,54,37,21,29.00,28.80,11,7,19,0.00
2013-9-21,70.9,65.4,53.6,49.1,45.6,41.1,63,49,41,29.07,28.98,4,2,7,0.00
2013-9-23,88.5,79.0,67.0,61.4,49.2,39.1,78,40,18,28.99,28.81,8,3,13,0.00
2013-9-24,89.1,76.2,67.6,58.8,48.1,39.6,61,38,19,28.86,28.63,5,2,7,0.00
2013-9-25,90.2,77.4,61.7,58.1,50.9,45.0,56,41,22,28.91,28.80,6,3,11,0.00
2013-9-26,94.0,82.4,65.7,54.2,38.4,27.1,54,22,13,29.04,28.69,17,7,23,0.00
2013-9-27,73.2,67.4,58.2,48.5,41.8,33.3,59,40,27,29.20,29.08,5,2,10,0.00
2013-9-28,87.2,80.8,70.1,30.1,26.6,23.1,22,14,10,28.96,28.79,13,7,19,0.00
2013-9-29,70.4,65.4,62.5,55.6,51.6,36.6,78,62,37,29.09,28.98,2,1,4,0.00
2013-9-30,88.8,72.4,54.1,53.7,47.3,33.0,87,47,14,29.10,28.92,7,3,13,0.00
2013-10-1,90.9,74.3,65.8,64.4,56.7,47.8,82,57,30,28.94,28.68,14,6,28,0.16
2013-10-2,79.6,73.6,62.2,49.9,40.6,36.3,64,31,22,29.06,28.83,11,5,19,0.00
2013-10-3,68.3,58.3,52.9,53.7,46.2,40.1,88,67,36,29.14,28.88,8,3,14,0.20
2013-10-4,68.7,61.1,50.5,53.6,48.4,43.2,80,64,46,29.22,29.12,7,2,17,0.00
2013-10-5,86.3,77.1,64.3,51.9,46.5,40.8,64,36,21,29.08,28.89,8,6,14,0.00
2013-10-6,89.8,83.4,74.8,45.9,41.9,38.8,34,24,17,28.90,28.78,7,4,14,0.00
2013-10-7,66.9,63.9,62.9,52.8,51.8,50.2,69,65,57,28.98,28.88,4,1,12,0.00
2013-10-8,73.5,65.2,56.8,57.4,53.6,51.2,82,67,51,29.14,28.97,3,1,12,0.01
2013-10-9,87.5,75.7,52.4,54.0,44.3,36.7,91,38,18,29.16,28.94,8,4,17,0.00
2013-10-10,94.6,85.6,67.7,43.4,40.1,34.5,40,21,14,28.99,28.67,13,7,28,0.00
2013-10-11,79.2,68.5,63.1,58.5,55.2,42.2,82,63,27,29.03,28.66,4,2,12,0.17
2013-10-14,67.5,62.0,56.8,51.6,46.2,42.1,80,57,46,29.13,28.83,5,2,14,0.02
2013-10-15,78.1,63.9,48.1,50.9,40.7,34.0,70,46,21,29.22,29.07,5,2,15,0.00
2013-10-16,86.7,75.9,59.7,52.3,43.0,32.9,49,33,16,29.13,28.91,8,4,20,0.00
2013-10-17,94.7,83.7,64.9,53.4,41.7,22.1,52,25,9,29.00,28.65,16,8,32,0.00
2013-10-18,69.6,63.4,58.2,49.9,42.4,30.4,70,47,27,29.34,29.05,6,2,18,0.00
2013-10-19,73.5,68.0,55.2,52.7,47.3,43.4,85,50,37,29.35,29.30,4,2,11,0.00
2013-10-20,59.4,59.3,59.2,57.7,57.6,57.5,94,94,94,29.19,29.19,0,0,1,0.00
2013-10-21,97.0,87.2,75.6,63.0,54.5,41.4,52,35,15,29.01,28.86,6,4,17,0.00
2013-10-22,84.8,74.4,68.2,67.4,65.8,56.1,92,76,53,28.98,28.83,4,1,15,0.00
2013-10-23,93.8,84.6,68.5,65.1,59.6,53.3,88,47,27,28.79,28.63,15,6,33,0.00
2013-10-24,81.6,72.8,61.5,50.2,39.4,27.0,66,33,15,29.10,28.83,10,6,23,0.00
2013-10-25,72.6,66.6,57.6,54.0,45.4,32.1,69,49,28,29.19,29.04,7,3,17,0.00
2013-10-26,73.5,63.9,55.5,56.4,48.1,36.3,85,58,30,29.16,29.05,5,1,15,0.00
2013-10-27,74.3,69.8,59.4,57.5,55.9,49.2,81,62,48,29.17,29.07,6,3,9,0.00
2013-10-28,78.5,71.2,61.3,62.6,59.2,56.4,86,67,49,29.06,28.84,3,1,9,0.00
2013-10-29,84.9,76.1,68.0,59.0,56.6,54.6,67,52,40,28.79,28.64,10,5,11,0.00
2013-10-30,70.3,62.3,56.2,56.1,53.9,51.9,92,75,57,29.07,28.92,5,2,0,0.02
2013-10-31,73.5,63.1,52.9,56.7,54.1,50.6,93,74,52,29.15,29.01,5,1,0,0.00
2013-11-1,73.8,66.8,61.7,59.9,58.2,56.1,85,74,61,29.17,29.05,4,2,0,0.00
2013-11-2,92.5,72.4,57.9,64.9,58.7,46.9,93,67,21,29.05,28.81,6,2,0,0.00
2013-11-3,94.1,78.8,62.1,76.5,49.5,39.4,87,44,15,29.03,28.68,10,4,6,0.00
2013-11-4,67.7,63.2,59.4,50.2,45.1,40.7,67,52,43,29.23,29.01,6,4,15,0.00
2013-11-5,71.1,63.7,56.0,53.5,51.2,48.3,78,64,49,29.27,29.20,4,2,9,0.00
2013-11-6,74.0,67.4,53.5,57.3,53.5,48.2,85,62,48,29.21,29.00,6,3,10,0.00
2013-11-7,85.3,74.2,54.9,62.4,58.9,52.6,92,60,39,29.01,28.81,7,3,13,0.00
2013-11-9,97.7,79.1,65.0,68.7,60.4,51.4,85,58,22,28.87,28.58,13,6,26,0.04
2013-11-10,72.0,66.9,61.0,59.8,58.2,55.6,93,75,61,28.96,28.90,4,2,8,0.32
2013-11-11,66.0,62.8,60.5,64.5,61.2,59.0,97,95,88,28.97,28.86,4,1,9,1.35
2013-11-12,75.2,67.7,62.3,63.5,61.9,59.8,97,83,64,28.88,28.77,4,1,11,0.13
2013-11-13,82.5,74.1,60.0,66.0,59.1,52.1,98,62,37,28.88,28.76,7,2,13,0.01
2013-11-14,70.6,70.3,70.3,51.8,51.8,51.8,52,52,52,28.87,28.87,0,0,0,0.00
2013-11-15,66.5,63.5,61.1,61.3,60.3,58.8,93,89,83,28.88,28.86,1,0,2,0.00
2013-11-16,72.1,66.6,59.4,59.5,57.7,56.1,92,74,60,28.87,28.82,3,2,10,0.87
2013-11-17,60.0,58.2,57.4,59.3,57.2,56.4,98,96,91,28.86,28.82,6,4,11,1.94
2013-11-18,72.6,64.4,60.4,69.1,61.5,58.5,98,91,77,28.81,28.64,8,4,19,1.64
2013-11-19,73.5,68.7,61.1,65.8,63.3,59.2,95,83,70,28.76,28.72,6,2,17,0.08
2013-11-20,79.2,74.2,67.3,66.8,65.2,63.6,88,74,64,28.80,28.73,5,2,9,0.01
2013-11-21,78.7,74.1,69.2,66.8,65.5,64.2,88,75,65,28.80,28.68,7,4,17,0.01
2013-11-22,74.4,68.9,64.5,68.6,65.1,62.7,95,88,78,28.77,28.60,10,5,20,0.54
2013-11-23,74.8,67.7,62.9,67.3,63.9,61.1,97,88,71,28.63,28.50,6,2,14,0.31
2013-11-24,77.4,75.1,70.7,62.0,59.5,56.4,68,59,51,28.60,28.55,2,2,7,0.00
2013-11-25,75.6,65.7,59.7,62.6,59.0,53.3,93,80,60,28.80,28.63,8,3,21,0.16
2013-11-26,72.6,62.4,57.6,56.1,52.6,50.4,83,71,55,28.94,28.79,6,3,8,0.00
2013-11-27,77.3,70.4,59.4,58.8,56.2,52.2,83,62,47,28.94,28.83,5,2,7,0.00
2013-11-28,88.7,77.1,58.8,66.9,61.9,55.9,94,62,38,28.86,28.51,5,3,11,0.00
2013-11-29,74.6,65.4,60.3,66.4,62.3,58.4,97,90,67,28.79,28.42,5,2,11,0.58
2013-11-30,68.1,66.4,64.6,59.6,58.6,57.2,79,76,72,28.96,28.94,3,2,4,0.04
2013-12-1,72.9,68.7,63.8,59.5,58.4,57.4,83,70,60,29.14,29.12,4,1,7,0.00
2013-12-2,75.0,69.1,61.3,58.3,55.6,53.1,90,64,48,29.07,29.05,3,1,5,0.00
2013-12-3,77.9,73.9,65.3,61.9,59.2,54.7,78,61,48,28.94,28.76,7,4,14,0.00
2013-12-4,95.2,85.4,67.0,67.7,63.3,59.3,81,49,32,28.65,28.42,5,3,10,0.00
2013-12-5,83.3,71.0,58.4,70.0,49.5,35.4,94,50,26,28.63,28.28,14,7,23,0.06
2013-12-6,73.6,67.2,55.4,51.2,45.5,38.0,71,47,33,28.94,28.72,7,2,14,0.00
2013-12-7,77.9,71.4,56.0,58.5,54.7,50.4,84,57,42,29.00,28.93,4,2,12,0.00
2013-12-8,81.6,78.0,64.4,62.6,59.7,55.2,91,54,44,28.94,28.73,6,3,11,0.00
2013-12-9,98.1,86.0,68.0,65.8,61.4,55.1,74,45,25,28.69,28.47,8,4,13,0.00
2013-12-10,94.7,85.3,70.5,66.7,61.1,55.1,86,47,28,28.60,28.43,10,3,17,0.00
2013-12-11,81.5,75.9,70.2,65.8,64.4,62.6,84,68,57,28.66,28.50,5,2,11,0.00
2013-12-12,79.1,74.8,68.5,67.5,64.5,62.3,81,71,62,28.71,28.64,7,4,16,0.00
2013-12-13,85.3,76.1,66.0,69.6,66.6,62.4,89,73,49,28.73,28.63,7,3,13,0.00
2013-12-14,80.0,74.9,70.1,67.9,66.1,64.4,87,75,63,28.80,28.68,8,6,14,0.00
2013-12-15,76.6,71.9,68.9,64.2,63.2,62.4,81,74,64,28.94,28.88,2,1,8,0.00
2013-12-16,78.0,73.5,66.9,65.3,63.3,60.9,84,71,63,29.00,28.89,5,3,16,0.00
2013-12-17,80.0,74.2,65.1,64.4,62.6,60.5,85,68,57,29.00,28.92,7,3,14,0.00
2013-12-18,81.7,74.7,66.3,64.6,61.7,58.6,85,65,48,29.07,28.96,5,2,10,0.00
2013-12-19,81.0,75.7,66.3,66.8,63.3,60.0,81,66,56,29.03,28.87,6,3,15,0.00
2013-12-20,104.0,90.9,67.7,69.8,64.2,52.1,81,44,18,28.88,28.68,5,2,11,0.00
2013-12-21,80.1,74.8,70.6,69.0,67.7,65.1,91,79,68,28.84,28.74,6,3,12,0.00
2013-12-22,92.7,91.6,89.9,73.1,72.4,71.7,56,54,53,28.63,28.62,4,3,8,0.00
2013-12-23,94.9,92.9,91.2,58.7,57.5,56.9,32,31,29,28.60,28.58,10,9,16,0.00
2013-12-24,69.9,67.8,64.2,64.8,63.5,61.6,97,86,78,28.89,28.83,2,1,7,0.19
2013-12-26,77.2,74.2,70.5,67.1,66.0,64.7,84,76,69,28.70,28.67,7,4,9,0.06
2013-12-27,79.7,76.7,75.2,66.9,65.3,64.3,71,68,64,28.71,28.69,2,2,5,0.00
2013-12-28,80.6,76.9,71.9,68.4,66.6,64.1,82,71,63,28.68,28.51,6,4,12,0.00
2013-12-29,70.3,70.2,70.1,66.5,66.2,65.9,88,87,86,28.54,28.53,7,6,9,0.00
2013-12-30,74.6,73.7,72.4,56.3,55.5,54.8,54,53,52,28.78,28.78,2,1,4,0.00
2013-12-31,82.3,79.8,78.5,65.0,64.2,63.3,61,59,57,28.69,28.68,2,2,5,0.00
2014-1-1,80.7,80.5,80.2,66.9,66.1,64.9,64,62,59,28.74,28.73,3,2,3,0.00
2014-1-2,101.3,90.3,72.9,69.9,61.2,52.3,90,43,22,28.52,28.41,8,5,13,0.00